Content
SEND FEEDBACK

Daily
Averages
Monthly
Summary
United States of America

STILLWATER, OKLAHOMA


Home > North America > United States > Oklahoma
Elevation: 875 feet     Latitude: 36 07N     Longitude: 097 06W

WEATHER
 
SELECT A DAY
Number of Records: 173,818;   Date Range: 3/22/95 - 7/7/14
 
SHARE

PRINT THIS DATA

[ ← Previous Day ]
WEATHER ALMANAC - FEBRUARY 13, 2013
[ Next Day → ]
[ °C ]   °F
Weather ElementAverageHighLow
Temperature36.8 °F52 °F (2:53 pm)32 °F (5:53 am)
Dewpoint31 °F37 °F (12:53 pm)26.1 °F (4:53 pm)
Humidity82.7 %100 % (1:53 am)38 % (4:53 pm)
Barometer30.03 in30.08 in (8:53 am)29.97 in (2:53 pm)
Wind Speed7.4 mph11.5 mph (7:18 am)
Weather ElementAverage
Visibility4.7 mi
Wind DirectionWSW (247.1 °)

Weather ElementTotal
Precipitation---
Heating Degree Days23 (Base 65)
Averaged from 38 records on February 13, 2013
WEATHER CONDITIONS BREAKOUT
WIND DIRECTION BREAKOUT
WEATHER BY HOUR - FEBRUARY 13, 2013
[ °C ]   °F
Local TimeTemperatureDewpointHumidityBarometerVisibilityWind DirectionWind SpeedGust SpeedPrecipitationEventsConditions
12:43 AM33.8 °F32.0 °F93 %30.04 in1.8 miCalmOvercast
12:53 AM33.1 °F32.0 °F96 %30.06 in1.0 miWest (270°)3.5 mphOvercast
1:00 AM33.8 °F32.0 °F93 %30.04 in0.5 miWest (280°)4.6 mphFogFog
1:13 AM33.8 °F32.0 °F93 %30.04 in0.2 miWNW (300°)5.8 mphFogFog
1:25 AM33.8 °F32.0 °F93 %30.04 in0.5 miWNW (290°)5.8 mphFogFog
1:53 AM33.1 °F33.1 °F100 %30.06 in0.5 miWest (280°)3.5 mphFogFog
2:53 AM33.1 °F32.0 °F96 %30.06 in0.5 miWest (280°)8.1 mphFogFog
3:53 AM33.1 °F33.1 °F100 %30.05 in0.5 miWest (280°)6.9 mphFogFog
4:23 AM33.8 °F33.8 °F100 %30.02 in1.0 miWest (270°)5.8 mphOvercast
4:30 AM33.8 °F33.8 °F100 %30.02 in0.8 miWest (270°)3.5 mphOvercast
4:53 AM34.0 °F33.1 °F96 %30.03 in1.2 miWSW (240°)5.8 mphOvercast
5:01 AM33.8 °F33.8 °F100 %30.02 in3.0 miWest (260°)6.9 mphOvercast
5:53 AM32.0 °F32.0 °F100 %30.03 in2.5 miSW (220°)5.8 mphOvercast
6:03 AM32.0 °F30.2 °F93 %30.02 in0.8 miSW (220°)8.1 mphOvercast
6:22 AM32.0 °F30.2 °F93 %30.03 in0.2 miWSW (250°)9.2 mphFogFog
6:53 AM32.0 °F32.0 °F100 %30.06 in0.5 miWSW (240°)10.4 mphFogFog
7:18 AM32.0 °F30.2 °F93 %30.04 in1.0 miSW (230°)11.5 mphMist
7:26 AM32.0 °F30.2 °F93 %30.04 in0.5 miWSW (240°)11.5 mphFogFog
7:43 AM32.0 °F30.2 °F93 %30.04 in1.5 miWSW (250°)10.4 mphOvercast
7:53 AM32.0 °F30.9 °F96 %30.07 in2.5 miWest (270°)8.1 mphOvercast
8:01 AM32.0 °F30.2 °F93 %30.05 in4.0 miWSW (250°)10.4 mphOvercast
8:53 AM32.0 °F32.0 °F100 %30.08 in6.0 miWSW (250°)10.4 mphOvercast
9:53 AM34.0 °F33.1 °F96 %30.07 in8.0 miWSW (250°)10.4 mphOvercast
10:08 AM35.6 °F33.8 °F93 %30.05 in8.0 miWSW (240°)9.2 mphMostly Cloudy
10:53 AM37.0 °F34.0 °F89 %30.07 in10.0 miSW (230°)10.4 mphScattered Clouds
11:53 AM41.0 °F35.1 °F79 %30.06 in6.0 miSW (230°)8.1 mphHaze
12:53 PM46.9 °F37.0 °F68 %30.02 in4.0 miSW (220°)8.1 mphHaze
1:53 PM50.0 °F32.0 °F50 %30.00 in10.0 miWest (270°)9.2 mphClear
2:53 PM52.0 °F30.0 °F43 %29.97 in10.0 miWest (260°)10.4 mphClear
3:53 PM51.1 °F27.0 °F39 %29.98 in10.0 miWest (260°)11.5 mphClear
4:53 PM51.1 °F26.1 °F38 %29.97 in10.0 miWest (260°)11.5 mphClear
5:53 PM46.9 °F26.1 °F44 %29.97 in10.0 miWSW (250°)8.1 mphClear
6:53 PM43.0 °F26.1 °F51 %29.97 in10.0 miSSW (210°)3.5 mphClear
7:53 PM39.9 °F27.0 °F60 %29.98 in10.0 miWest (260°)4.6 mphClear
8:53 PM37.9 °F28.0 °F68 %29.99 in10.0 miWest (270°)3.5 mphClear
9:53 PM37.0 °F28.0 °F70 %29.99 in10.0 miWSW (240°)4.6 mphClear
10:53 PM36.0 °F28.0 °F73 %29.98 in10.0 miWSW (240°)8.1 mphClear
11:53 PM36.0 °F26.1 °F67 %29.99 in10.0 miWest (260°)5.8 mphClear
Hourly data recorded from KSWO, located miles away from Stillwater, Oklahoma







STORIES FROM OUR PARTNERS